Simultaneous Nadir Overpasses (SNOs) Predictions

Prediction of SNOs between AQUA and METOP-A Satellite Orbit:

Table of predicted SNOs for the next 14.0 days since TLE Epoch: 12/19/2020
Index Date (AQUA) Time (AQUA) Lat,Lon (AQUA) SZA (AQUA ) Date (METOP-A) Time (METOP-A) Lat,Lon (METOP-A) SZA (METOP-A ) Distance(km) Time Diff (sec)
1 12/21/2020 11:12:03 76.45, -0.71 100.10 12/21/2020 11:10:57 76.40, -3.70 100.23 78.39 66
2 12/21/2020 12:01:38 -76.90, 165.36 79.39 12/21/2020 12:01:28 -76.89, 165.39 79.40 1.73 10
3 12/21/2020 12:51:06 76.92, -27.08 100.64 12/21/2020 12:52:07 76.93, -27.10 100.64 1.22 61
4 12/24/2020 06:46:25 76.75, 64.70 100.42 12/24/2020 06:45:14 76.68, 63.63 100.43 28.41 71
5 12/24/2020 07:35:54 -76.91,-128.22 79.40 12/24/2020 07:35:51 -76.89,-128.24 79.41 1.66 3
6 12/24/2020 08:25:22 76.93, 39.31 100.64 12/24/2020 08:26:30 76.93, 39.25 100.63 1.76 68
7 12/27/2020 02:20:42 76.86, 130.73 100.48 12/27/2020 02:19:32 76.86, 130.65 100.50 2.01 70
8 12/27/2020 03:10:09 -76.92, -61.83 79.46 12/27/2020 03:10:13 -76.90, -61.88 79.48 2.87 4
9 12/27/2020 03:59:38 77.00, 105.51 100.64 12/27/2020 04:00:50 77.02, 105.94 100.62 11.01 72
10 12/29/2020 21:54:58 76.89,-162.92 100.37 12/29/2020 21:53:54 76.90,-162.84 100.40 2.80 64
11 12/29/2020 22:44:25 -76.94, 4.53 79.58 12/29/2020 22:44:35 -76.94, 4.64 79.58 2.69 10
12 12/29/2020 23:34:00 77.30, 170.78 100.86 12/29/2020 23:35:07 77.29, 173.35 100.69 62.87 67
13 01/01/2021 17:29:14 76.92, -96.60 100.21 01/01/2021 17:28:17 76.90, -96.51 100.20 3.11 57
14 01/01/2021 18:18:40 -76.92, 71.05 79.80 01/01/2021 18:18:58 -76.94, 70.98 79.77 3.27 18



Historial Predications of SNOs between AQUA and METOP-A
